星链-6197 (STARLINK-6197 )

导读

STARLINK-6197(星链-6197)是美国SpaceX公司星链星座的v1.5版本卫星,于2023年5月31日发射入轨,当前处于正常在轨工作状态。它运行在近地点约548公里、远地点约555公里的近地轨道,轨道倾角约70度,周期约95.7分钟。作为星链全球卫星互联网项目的组成部分,它配备激光星间链路,为全球提供低延迟高速宽带接入,助力实现偏远区域及特殊场景的网络覆盖。

Basic Information
目录编号:
56767
目录名称:
STARLINK-6197
国际标识:
2023-078A
轨道中心:
EARTH
卫星名称:
星链-6197
卫星全名:
星链-6197 (STARLINK-6197 )
卫星状态:
在轨 (已飞行1200 天)
发射日期:
2023-05-31 UTC
国别 :
美国 (US)
星等 :
--
This satellite is enrolled in the Space Conjunction Data Service (SCDS) and the current flight risk assessment level is: No High Risk
Orbit Information
数据来源 国际轨道数据 AOE轨道数据
星历时间 2026-09-12T09:30:51+0800
15小时前
查看轨道信息
2026-09-06T06:00:00+0800
6天前
查看轨道信息
半长轴 6871.232km 6871.978km
偏心率 0.000672 0.0007246
轨道倾角 69.987° 69.987°
近地点辐角 238.058° 247.850°
升交点赤经 223.120° 239.256°
平近点角 121.994° 238.164°
近地点 488.477km 488.861km
远地点 497.713km 498.821km
周期 94.474分钟 94.489分钟
每日圈数 15.242314 15.23983
Detailed Information
固有亮度:
5
最大亮度:
2.5
卫星平台:
Starlink v1.5
覆盖范围:
全球
运营商:
太空探索技术公司
运营商所在国:
美国
制造商(研发单位):
太空探索技术公司
制造商所在国:
美国
使用方式:
暂无
Satellite Introduction
星链(Starlink)计划是由太空探索技术公司(SpaceX)提出的一个巨型低轨卫星互联网星座项目,计划在2019年至2024年间在太空搭建由约1.2万颗卫星组成的“星链”网络,其中1584颗将部署在地球上空550千米处的近地轨道,并从2020年开始工作。该卫星仍在工作。
2D Orbit Map
3D Orbit Map
Orbit Altitude Analysis Chart
Orbit Inclination Analysis Chart
Orbit Comprehensive Analysis Chart
View Comprehensive Chart
Conjunction Data List
Event ID Objects TCA Miss Dist (km) Collision Risk Probability Collision Risk Index (CRI) Action
CDM_260914-174205-676706-268521
2026-09-14T
17:42:27+0000
1.730 km
极远距离
3.985327E-6 低风险 0.47
CDM_260914-152005-676706-267621
2026-09-14T
15:20:29+0000
2.679 km
极远距离
1.456968E-6 低风险 0.38
Miss Distance Evolution Trend with All Objects
Collision Probability Evolution Trend with All Objects